Location: Woodstock
(43.1330°N, 80.7500°W)
Time: 12:47:48
(UTC-04:00)

Daily predictions for brighter satellites

Satellite Brightness Start Highest point End
(mag) Time Altitude Azimuth Time Altitude Azimuth Time Altitude Azimuth
Cosmos 44 4.2 21:11:22 10° NW 21:16:34 55° WSW 21:21:51 10° SSE
ATLAS CENTAUR R/B 1.9 21:13:31 10° NNW 21:17:58 59° NE 21:22:39 10° SE
ERS-2 2.4 21:16:02 10° S 21:19:42 74° WSW 21:23:24 10° NNW
NOSS 3-2 (A) 4.0 21:15:21 10° S 21:20:33 34° ESE 21:26:12 10° NE
Okean 2 Rocket 4.4 21:16:25 10° NNW 21:20:36 42° W 21:24:45 10° SSW
USA 234 3.3 21:15:19 10° NE 21:21:54 74° SE 21:28:28 10° SW
Cosmos 1536 3.8 21:19:45 10° NNW 21:23:42 49° W 21:27:37 10° SSW
NOSS 3-2 (C) 4.3 21:19:19 10° SSE 21:24:03 26° ESE 21:29:07 10° ENE
Okean 1 Rocket 3.5 21:20:24 10° N 21:24:36 44° ENE 21:28:44 10° SSE
Cosmos 1242 Rocket 4.3 21:22:57 10° NNE 21:25:35 18° ENE 21:28:10 10° ESE
Cosmos 1975 Rocket 4.4 21:23:17 10° SE 21:26:30 21° E 21:29:43 10° NE
Cosmos 1674 Rocket 3.6 21:23:00 10° S 21:27:26 75° E 21:31:55 10° NNE
Cosmos 1378 Rocket 3.9 21:23:46 10° SSE 21:27:52 44° E 21:31:58 10° NNE
Atlas Centaur 2 3.2 21:29:33 10° SSW 21:30:31 11° S 21:31:29 10° SSE
Resurs 01 Rocket 2.0 21:27:25 10° S 21:31:48 69° WSW 21:36:13 10° NNW
ERS-1 Rocket 4.2 21:28:18 10° ESE 21:32:26 27° ENE 21:36:36 10° N
Tiangong 2 2.8 21:30:39 10° S 21:32:38 16° SSE 21:34:27 11° ESE
Cosmos 1975 3.5 21:30:45 10° N 21:34:33 37° ENE 21:38:14 10° SE
Cosmos 2082 Rocket 2.9 21:29:12 10° SW 21:34:46 60° WNW 21:40:25 10° NNE
Thor Agena Rocket 4.2 21:30:56 10° N 21:36:11 63° WNW 21:41:20 10° SSW
Cosmos 2322 Rocket 3.3 21:32:18 10° N 21:37:14 30° NE 21:42:00 11° ESE
COSMOS 2487 2.4 21:34:00 10° S 21:37:28 68° ESE 21:40:58 10° NNE
NOAA 11 4.3 21:32:19 10° SSE 21:37:47 86° WSW 21:43:17 10° NNW
Cosmos 1184 Rocket 3.8 21:39:07 10° SSW 21:42:23 51° WNW 21:45:41 10° N
Cosmos 1864 Rocket 4.5 21:37:05 10° S 21:43:15 81° E 21:49:24 10° N
SL-16 R/B 3.1 21:38:34 10° N 21:43:47 36° NE 21:48:26 12° ESE
Cosmos 371 Rocket 4.3 21:42:40 10° SW 21:47:21 50° WNW 21:52:03 10° N
USA 186 4.5 21:48:01 10° SW 21:50:16 18° W 21:52:39 10° NW
Timation 2 Rocket 4.3 21:45:01 10° S 21:50:28 39° ESE 21:56:01 10° NE
ARGOS 3.3 21:49:16 11° SSE 21:54:26 65° ENE 21:59:48 10° N
SPOT 5 4.0 21:54:04 14° ESE 21:56:51 25° ENE 22:00:30 10° NNE
GPS 2-04 Rocket1 4.1 21:53:56 10° WSW 21:57:27 25° S 21:59:43 16° SSE
CENTAUR R/B 3.6 21:55:22 14° SE 21:58:33 20° ESE 22:03:08 10° ENE
SJ 16-02 3.7 22:01:01 10° NE 22:02:21 11° NE 22:03:41 10° ENE
Helios 1A 4.0 22:03:55 18° ESE 22:06:18 31° ENE 22:09:59 10° N
ATLAS 3B R/B 2.8 22:00:38 10° SW 22:07:51 85° NW 22:14:49 10° NE
Okean 1 4.0 22:11:02 10° SSW 22:15:00 55° W 22:19:01 10° N
USA 32 4.4 22:11:44 10° N 22:16:50 48° E 22:20:04 21° SSE
Cosmos 2084 4.0 22:17:48 15° S 22:20:47 33° ESE 22:24:30 10° NE
Terra 3.2 22:20:01 17° ESE 22:22:18 24° ENE 22:26:07 10° NNE
Lacrosse 5 rocket 3.6 22:20:44 10° NNW 22:24:02 20° NNE 22:27:13 10° ENE
Cosmos 1937 Rocket 3.6 22:19:48 10° NNW 22:24:55 62° ENE 22:27:55 24° SE
Shenzhou-11 Module 1.8 22:22:41 10° W 22:25:40 85° S 22:26:59 30° E
Cosmos 468 Rocket 3.9 22:20:40 10° SSW 22:25:57 83° ESE 22:31:14 10° NNE
Aureole 2 Rocket 3.7 22:23:45 10° N 22:26:07 20° ENE 22:26:40 19° ENE
USA 245 2.9 22:25:00 32° SSE 22:26:21 69° ENE 22:30:15 10° N
Cosmos 2360 Rocket 3.2 22:24:42 10° N 22:29:50 35° NE 22:33:03 20° ESE
ISS -3.9 22:26:43 10° WSW 22:29:59 89° NNW 22:33:16 10° ENE
CZ-4C R/B 4.4 22:26:07 10° NNW 22:31:44 26° NNE 22:37:56 10° E
MetOp-B 4.3 22:27:45 16° S 22:32:01 71° WSW 22:37:23 10° NNW
Cosmos 1980 Rocket 3.5 22:27:23 10° NW 22:32:25 34° WSW 22:37:27 10° SSW
SL-08 RB Rocket 3.9 22:29:44 19° S 22:32:56 69° WSW 22:37:30 10° NNW
Cosmos 2219 Rocket 4.4 22:33:04 10° NNE 22:35:57 14° NE 22:38:50 10° ENE
Meteor 2-9 Rocket 4.0 22:32:12 10° N 22:37:33 79° E 22:40:44 25° SSE
Cosmos 1763 Rocket 3.5 22:34:08 12° S 22:38:56 68° ESE 22:44:12 10° NNE
Cosmos 1666 3.8 22:36:06 10° NNW 22:39:45 41° W 22:42:31 16° SSW
Cosmos 841 Rocket 3.7 22:37:55 24° SSE 22:40:48 49° ESE 22:45:53 10° NNE
Cosmos 1743 3.7 22:37:34 10° NNW 22:41:13 42° W 22:43:47 17° SSW
Cosmos 2333 Rocket 4.4 22:38:33 10° N 22:41:35 14° NE 22:44:36 10° ENE
Cosmos 540 Rocket 4.3 22:41:48 27° ESE 22:42:50 29° E 22:47:17 10° NE
SPOT 1/Viking Rocket 3.5 22:40:44 28° SSE 22:43:32 71° ENE 22:48:41 10° N
COSMOS 2428 4.4 22:41:08 10° N 22:45:28 22° NE 22:48:47 14° E
CZ-2C R/B 4.0 22:42:51 10° NE 22:47:06 22° E 22:47:57 21° ESE
H-2A R/B 2.5 22:44:12 18° S 22:47:43 52° W 22:52:36 10° NNW
DMSP B5D2-2 4.0 22:42:59 10° NNE 22:48:19 80° ESE 22:52:04 20° S
Meteor 2-4 Rocket 3.6 22:45:41 18° S 22:49:50 88° E 22:55:24 10° N
Abrixas rocket 3.6 22:46:59 10° SW 22:48:33 25° SW 22:48:33 25° SW
Helios 1B rocket 2.5 22:47:27 10° NNE 22:51:33 57° E 22:52:46 40° SSE
Cosmos 1340 Rocket 2.7 22:51:32 36° S 22:53:05 76° E 22:57:10 10° NNE
Cosmos 1455 Rocket 3.0 22:49:56 10° N 22:54:18 84° W 22:56:06 35° S
IGS 5A 3.8 22:53:25 38° ESE 22:54:34 51° ENE 22:58:37 10° N
Cosmos 1833 4.4 22:53:11 29° SSE 22:55:49 49° ESE 23:01:18 10° NE
ATLAS CENTAUR R/B 3.8 22:53:30 10° WNW 22:56:37 18° WSW 22:59:24 11° SSW
Cosmos 1025 Rocket 4.1 22:59:55 28° E 23:00:06 29° E 23:03:52 10° NNE
Cosmos 1242 Rocket 4.3 22:57:22 10° NNW 23:00:33 28° W 23:02:29 17° SW
Cosmos 1898 Rocket 4.4 22:57:32 10° NNW 23:02:32 44° WSW 23:05:32 22° SSW
Cosmos 1356 3.3 23:02:48 66° SSE 23:03:13 80° E 23:06:42 10° NNE
Spot 1 3.9 23:04:56 49° SE 23:05:59 75° ENE 23:10:04 10° N
Tiangong 2 3.2 23:05:51 10° WSW 23:06:45 17° WSW 23:06:45 17° WSW
ERS-1 Rocket 4.0 23:07:59 19° SSW 23:11:02 38° W 23:15:44 10° NNW
Cosmos 1814 Rocket 4.3 23:06:16 12° SSW 23:11:04 69° WNW 23:16:22 10° NNE
NOSS 3-2 (A) 4.5 23:05:24 10° WSW 23:11:08 47° NW 23:17:34 10° NNE
BREEZE M DEB (TANK) 2.9 23:04:51 10° WNW 23:12:32 48° SW 23:13:13 43° SSW
Cosmos 2322 4.1 23:07:16 10° NNW 23:12:54 54° ENE 23:15:05 35° ESE
Meteor 1-29 2.8 23:10:01 10° NNE 23:13:31 80° ESE 23:13:38 78° SE
NOSS 3-2 (C) 4.0 23:08:29 10° SW 23:14:21 59° NW 23:20:57 10° NNE
Meteor 1-15 Rocket 4.2 23:08:43 10° N 23:14:32 81° E 23:16:45 39° SSE
BREEZE-M R/B 3.6 23:12:26 10° W 23:15:20 34° NNW 23:16:40 19° NE
Cosmos 1125 Rocket 4.1 23:10:47 10° N 23:15:52 45° ENE 23:17:27 35° ESE
Cosmos 292 Rocket 3.7 23:16:52 30° SSW 23:19:15 81° WNW 23:24:03 10° NNE
Cosmos 2322 Rocket 3.0 23:16:08 10° NW 23:21:24 43° WSW 23:23:50 28° SSW
Cosmos 1515 4.0 23:21:35 46° SW 23:22:29 62° W 23:26:19 10° N
Cosmos 1092 Rocket 4.3 23:16:20 10° N 23:22:32 53° ENE 23:24:43 37° SE
Cosmos 2237 Rocket 4.3 23:20:41 10° N 23:24:17 17° NE 23:27:50 10° E
Cosmos 1066 Rocket 4.4 23:24:23 42° ESE 23:25:18 46° E 23:30:28 10° NNE
SL-16 R/B 3.3 23:22:43 10° NW 23:27:51 36° WSW 23:30:19 25° SSW
Nadezhda 4 Rocket 3.9 23:23:00 10° N 23:29:19 85° E 23:31:47 40° S
Cosmos 836 Rocket 4.5 23:31:57 52° SSE 23:32:55 63° ESE 23:38:05 10° NNE
SPOT 5 4.0 23:33:17 25° SW 23:34:48 32° W 23:38:49 10° NNW
Cosmos 1536 Rocket 4.3 23:35:35 32° SW 23:37:16 49° WNW 23:41:36 10° N
Cosmos 2237 4.1 23:33:25 10° NNW 23:39:11 84° ENE 23:40:45 50° SSE
Nimbus 7 Rocket 4.3 23:33:52 10° NNE 23:39:46 89° ESE 23:42:12 38° SSW
SJ 16-02 1.2 23:37:09 10° NNW 23:41:37 86° WSW 23:42:00 74° S
CZ-2C R/B 3.1 23:41:02 51° S 23:42:25 84° WSW 23:47:59 10° NNW
Cosmos 2219 4.0 23:44:28 35° ESE 23:44:28 35° ESE 23:49:32 10° NE
CENTAUR R/B 2.7 23:42:22 10° SW 23:48:16 73° NW 23:55:15 10° NE
Cosmos 1726 Rocket 4.4 23:44:11 10° N 23:48:18 38° ENE 23:48:18 38° ENE
Mayak 0.8 23:48:15 10° NE 23:50:06 17° ENE 23:50:06 17° ENE
Cosmos 2058 Rocket 4.3 23:47:54 10° NNE 23:51:55 30° ENE 23:52:01 30° ENE
